TRA658 DTTA-LIPZ

Flight info

Callsign TRA658
Flight time 1h 22m
Altitude 34000
Route TOBIB2A TOBIB UA725 OSMAR DCT TIVUK DCT ALEDI DCT APSUX DCT KUGIX DCT SUKOM Q125 NIMUM Z43 OTGIG
Aircraft A320/M-SDE3FGHIRWY/LB1

Departure

Time 2026-05-06 17:53
Airport Tunis Carthage International Airport (DTTA)

Arrival

Time 2026-05-06 19:16
Airport Venice Marco Polo Airport (LIPZ)
Time Latitude Longitude Altitude Speed Heading
2026-05-06 17:24 36.84661 10.21959 31 ft 0 kts 198°
2026-05-06 17:41 36.84679 10.21966 30 ft 3 kts 193°
2026-05-06 17:42 36.84701 10.21971 30 ft 3 kts 182°
2026-05-06 17:42 36.84723 10.21969 30 ft 3 kts 158°
2026-05-06 17:42 36.84738 10.21955 30 ft 3 kts 105°
2026-05-06 17:42 36.84740 10.21947 30 ft 0 kts 103°
2026-05-06 17:48 36.84739 10.21950 30 ft 2 kts 103°
2026-05-06 17:48 36.84728 10.22011 30 ft 11 kts 103°
2026-05-06 17:48 36.84699 10.22101 30 ft 12 kts 141°
2026-05-06 17:49 36.84612 10.22096 30 ft 14 kts 192°
2026-05-06 17:49 36.84518 10.22107 30 ft 15 kts 134°
2026-05-06 17:49 36.84477 10.22229 30 ft 16 kts 137°
2026-05-06 17:49 36.84366 10.22221 30 ft 17 kts 192°
2026-05-06 17:50 36.84243 10.22189 30 ft 19 kts 192°
2026-05-06 17:50 36.84111 10.22152 30 ft 19 kts 192°
2026-05-06 17:50 36.83980 10.22119 30 ft 20 kts 191°
2026-05-06 17:50 36.83871 10.22127 30 ft 15 kts 119°
2026-05-06 17:51 36.83880 10.22234 31 ft 0 kts 72°
2026-05-06 17:51 36.83880 10.22237 31 ft 1 kts 71°
2026-05-06 17:51 36.83886 10.22254 31 ft 6 kts 68°
2026-05-06 17:52 36.83928 10.22329 31 ft 12 kts 46°
2026-05-06 17:52 36.84000 10.22395 31 ft 14 kts 24°
2026-05-06 17:52 36.84096 10.22427 32 ft 17 kts 13°
2026-05-06 17:52 36.84413 10.22513 30 ft 79 kts 11°
2026-05-06 17:53 36.85124 10.22707 35 ft 127 kts 12°
2026-05-06 17:53 36.86125 10.22978 70 ft 163 kts 13°
2026-05-06 17:53 36.87225 10.23262 640 ft 162 kts
2026-05-06 17:53 36.88327 10.22990 1248 ft 166 kts 342°
2026-05-06 17:54 36.89474 10.22475 1571 ft 186 kts 345°
2026-05-06 17:54 36.90782 10.21942 1820 ft 210 kts 345°
2026-05-06 17:54 36.92267 10.21374 2154 ft 235 kts 345°
2026-05-06 17:54 36.93911 10.20780 2558 ft 257 kts 347°
2026-05-06 17:55 36.95674 10.20171 3258 ft 266 kts 348°
2026-05-06 17:55 36.97465 10.19570 4175 ft 269 kts 349°
2026-05-06 17:55 36.99277 10.18980 4949 ft 276 kts 350°
2026-05-06 17:55 37.01168 10.18375 5669 ft 285 kts 349°
2026-05-06 17:56 37.03115 10.17757 6398 ft 293 kts 349°
2026-05-06 17:56 37.05122 10.17122 7086 ft 300 kts 348°
2026-05-06 17:56 37.07173 10.16473 7811 ft 307 kts 347°
2026-05-06 17:56 37.09266 10.15807 8535 ft 313 kts 346°
2026-05-06 17:57 37.11401 10.15129 9225 ft 320 kts 346°
2026-05-06 17:57 37.13584 10.14433 9910 ft 327 kts 345°
2026-05-06 17:57 37.15839 10.13712 10294 ft 345 kts 344°
2026-05-06 17:57 37.18242 10.12941 10466 ft 368 kts 344°
2026-05-06 17:58 37.20762 10.12133 10914 ft 378 kts 344°
2026-05-06 17:58 37.23331 10.11310 11575 ft 382 kts 343°
2026-05-06 17:58 37.25910 10.10487 12289 ft 384 kts 342°
2026-05-06 17:58 37.28506 10.09659 13003 ft 386 kts 342°
2026-05-06 17:59 37.31125 10.08824 13674 ft 389 kts 341°
2026-05-06 17:59 37.33755 10.07982 14266 ft 392 kts 341°
2026-05-06 17:59 37.36367 10.07146 14882 ft 393 kts 341°
2026-05-06 17:59 37.39028 10.06295 15529 ft 394 kts 341°
2026-05-06 18:00 37.41686 10.05443 16169 ft 394 kts 340°
2026-05-06 18:00 37.44343 10.04597 16808 ft 395 kts 340°
2026-05-06 18:00 37.47024 10.03753 17477 ft 396 kts 340°
2026-05-06 18:00 37.49697 10.02919 18149 ft 397 kts 340°
2026-05-06 18:01 37.52386 10.02074 18735 ft 398 kts 340°
2026-05-06 18:01 37.55053 10.01230 19214 ft 402 kts 340°
2026-05-06 18:01 37.57816 10.00349 19697 ft 407 kts 340°
2026-05-06 18:01 37.60544 9.99480 20215 ft 410 kts 340°
2026-05-06 18:02 37.63323 9.98599 20748 ft 413 kts 341°
2026-05-06 18:02 37.66114 9.97713 21271 ft 415 kts 341°
2026-05-06 18:02 37.68924 9.96815 21791 ft 418 kts 341°
2026-05-06 18:02 37.71753 9.95907 22281 ft 420 kts 341°
2026-05-06 18:03 37.74602 9.94997 22783 ft 423 kts 341°
2026-05-06 18:03 37.77464 9.94085 23296 ft 425 kts 341°
2026-05-06 18:03 37.80345 9.93170 23720 ft 428 kts 341°
2026-05-06 18:03 37.83240 9.92252 24114 ft 430 kts 341°
2026-05-06 18:04 37.86144 9.91329 24506 ft 432 kts 341°
2026-05-06 18:04 37.89064 9.90397 24898 ft 434 kts 341°
2026-05-06 18:04 37.92002 9.89459 25281 ft 436 kts 341°
2026-05-06 18:04 37.94953 9.88516 25645 ft 438 kts 341°
2026-05-06 18:05 37.97912 9.87569 26022 ft 439 kts 341°
2026-05-06 18:05 38.00846 9.86629 26378 ft 441 kts 341°
2026-05-06 18:05 38.03831 9.85671 26735 ft 443 kts 341°
2026-05-06 18:05 38.06825 9.84710 27096 ft 445 kts 341°
2026-05-06 18:06 38.09834 9.83747 27449 ft 447 kts 341°
2026-05-06 18:06 38.12855 9.82781 27831 ft 448 kts 341°
2026-05-06 18:06 38.15883 9.81811 28224 ft 449 kts 341°
2026-05-06 18:06 38.18916 9.80837 28583 ft 450 kts 341°
2026-05-06 18:07 38.21968 9.79879 28927 ft 454 kts 343°
2026-05-06 18:07 38.25125 9.79357 29281 ft 461 kts 353°
2026-05-06 18:07 38.28365 9.79483 29565 ft 469 kts
2026-05-06 18:07 38.31591 9.80210 29975 ft 472 kts
2026-05-06 18:08 38.34807 9.81012 30360 ft 471 kts
2026-05-06 18:08 38.38032 9.81805 30766 ft 469 kts
2026-05-06 18:08 38.41191 9.82578 31170 ft 468 kts
2026-05-06 18:08 38.44383 9.83355 31578 ft 466 kts
2026-05-06 18:09 38.47573 9.84129 31974 ft 465 kts
2026-05-06 18:09 38.50744 9.84900 32419 ft 464 kts
2026-05-06 18:09 38.52882 9.85422 32683 ft 463 kts
2026-05-06 18:09 38.57074 9.86450 33244 ft 461 kts
2026-05-06 18:10 38.59204 9.86974 33539 ft 460 kts
2026-05-06 18:10 38.62307 9.87737 33889 ft 460 kts
2026-05-06 18:10 38.68628 9.89283 33969 ft 464 kts
2026-05-06 18:11 38.74986 9.90841 33967 ft 467 kts
2026-05-06 18:11 38.81391 9.92426 33972 ft 468 kts
2026-05-06 18:12 38.87813 9.93560 33973 ft 463 kts 359°
2026-05-06 18:12 38.94219 9.94053 33993 ft 464 kts 359°
2026-05-06 18:13 39.00690 9.94558 33969 ft 466 kts 359°
2026-05-06 18:13 39.07173 9.95070 33966 ft 468 kts 359°
2026-05-06 18:14 39.13692 9.95588 33973 ft 469 kts 359°
2026-05-06 18:14 39.20205 9.96117 33978 ft 470 kts 359°
2026-05-06 18:15 39.26748 9.96644 33981 ft 471 kts 359°
2026-05-06 18:15 39.33290 9.97165 33984 ft 472 kts 359°
2026-05-06 18:16 39.39846 9.97693 34006 ft 472 kts 359°
2026-05-06 18:16 39.46377 9.98217 33983 ft 474 kts 359°
2026-05-06 18:17 39.52969 9.98744 33979 ft 475 kts 359°
2026-05-06 18:17 39.59570 9.99294 33980 ft 477 kts
2026-05-06 18:18 39.66091 10.01217 33981 ft 483 kts 13°
2026-05-06 18:18 39.72575 10.03610 33978 ft 484 kts 12°
2026-05-06 18:19 39.79073 10.05987 33981 ft 485 kts 12°
2026-05-06 18:19 39.85531 10.08340 33992 ft 485 kts 12°
2026-05-06 18:20 39.92040 10.10728 33985 ft 486 kts 12°
2026-05-06 18:20 39.98565 10.13136 33985 ft 487 kts 12°
2026-05-06 18:21 40.05093 10.15550 34000 ft 487 kts 12°
2026-05-06 18:21 40.11613 10.17961 33993 ft 487 kts 12°
2026-05-06 18:22 40.18101 10.20363 33986 ft 487 kts 12°
2026-05-06 18:22 40.24633 10.22782 33957 ft 488 kts 12°
2026-05-06 18:23 40.31174 10.25206 33957 ft 489 kts 13°
2026-05-06 18:23 40.37726 10.27652 33959 ft 490 kts 13°
2026-05-06 18:24 40.44295 10.30106 33968 ft 491 kts 13°
2026-05-06 18:24 40.50835 10.32555 33969 ft 492 kts 13°
2026-05-06 18:25 40.57460 10.35044 33967 ft 492 kts 13°
2026-05-06 18:25 40.64011 10.37498 33971 ft 493 kts 13°
2026-05-06 18:26 40.70622 10.39976 33988 ft 494 kts 13°
2026-05-06 18:26 40.77243 10.42472 33979 ft 494 kts 13°
2026-05-06 18:27 40.83872 10.44978 33973 ft 495 kts 13°
2026-05-06 18:27 40.90494 10.47486 33986 ft 496 kts 13°
2026-05-06 18:28 40.97123 10.50004 33988 ft 496 kts 13°
2026-05-06 18:28 41.03763 10.52529 33984 ft 496 kts 13°
2026-05-06 18:29 41.10361 10.55045 33992 ft 496 kts 12°
2026-05-06 18:29 41.16999 10.57575 33961 ft 496 kts 13°
2026-05-06 18:30 41.23669 10.59973 33955 ft 496 kts 10°
2026-05-06 18:30 41.30417 10.62055 33973 ft 496 kts
2026-05-06 18:31 41.37160 10.64083 33967 ft 497 kts
2026-05-06 18:31 41.43859 10.66190 33968 ft 498 kts
2026-05-06 18:32 41.50606 10.68370 33988 ft 498 kts
2026-05-06 18:32 41.57337 10.70548 33980 ft 497 kts
2026-05-06 18:33 41.64069 10.72721 33977 ft 497 kts
2026-05-06 18:33 41.70794 10.74883 33994 ft 496 kts
2026-05-06 18:34 41.77505 10.77050 33983 ft 496 kts
2026-05-06 18:34 41.84170 10.79213 33976 ft 495 kts
2026-05-06 18:35 41.90876 10.81390 33991 ft 495 kts
2026-05-06 18:35 41.97576 10.83558 33980 ft 495 kts
2026-05-06 18:36 42.04267 10.85734 33970 ft 495 kts
2026-05-06 18:36 42.10970 10.87924 33995 ft 495 kts
2026-05-06 18:37 42.16535 10.89745 33976 ft 494 kts
2026-05-06 18:37 42.24304 10.92295 33975 ft 494 kts
2026-05-06 18:38 42.31008 10.94502 33966 ft 494 kts
2026-05-06 18:38 42.37679 10.96691 33966 ft 494 kts
2026-05-06 18:39 42.44356 10.98887 33962 ft 494 kts
2026-05-06 18:40 42.54379 11.02215 33965 ft 494 kts
2026-05-06 18:40 42.61019 11.04433 33955 ft 494 kts
2026-05-06 18:41 42.67707 11.06653 33949 ft 494 kts
2026-05-06 18:41 42.74395 11.08874 33967 ft 494 kts
2026-05-06 18:42 42.81036 11.11092 33962 ft 494 kts
2026-05-06 18:42 42.87718 11.13331 33957 ft 495 kts
2026-05-06 18:43 42.94412 11.15574 33986 ft 495 kts
2026-05-06 18:43 43.01102 11.17822 33975 ft 495 kts
2026-05-06 18:44 43.07782 11.20082 33971 ft 495 kts
2026-05-06 18:44 43.14478 11.22340 33986 ft 494 kts
2026-05-06 18:45 43.21166 11.24601 33978 ft 494 kts
2026-05-06 18:45 43.27843 11.26866 33994 ft 494 kts
2026-05-06 18:46 43.34495 11.29128 33990 ft 495 kts
2026-05-06 18:46 43.41178 11.31415 33965 ft 494 kts
2026-05-06 18:47 43.47865 11.33697 33973 ft 495 kts
2026-05-06 18:47 43.54556 11.35984 33975 ft 495 kts
2026-05-06 18:48 43.61251 11.38166 33973 ft 494 kts
2026-05-06 18:48 43.67967 11.40139 33988 ft 493 kts
2026-05-06 18:49 43.74646 11.42095 33983 ft 494 kts
2026-05-06 18:49 43.81344 11.44122 33964 ft 484 kts
2026-05-06 18:49 43.84581 11.45127 33990 ft 469 kts
2026-05-06 18:50 43.87740 11.46111 33956 ft 464 kts
2026-05-06 18:50 43.94031 11.48051 33953 ft 462 kts
2026-05-06 18:51 44.00294 11.49957 33951 ft 463 kts
2026-05-06 18:51 44.06585 11.51875 33954 ft 465 kts
2026-05-06 18:52 44.12935 11.53823 33961 ft 469 kts
2026-05-06 18:52 44.19312 11.55795 33969 ft 469 kts
2026-05-06 18:53 44.25696 11.57770 33972 ft 470 kts
2026-05-06 18:53 44.32089 11.59757 33955 ft 470 kts
2026-05-06 18:54 44.38483 11.61747 33101 ft 469 kts
2026-05-06 18:54 44.41664 11.62735 32331 ft 466 kts
2026-05-06 18:54 44.44811 11.63721 31556 ft 461 kts
2026-05-06 18:54 44.47889 11.64690 30812 ft 457 kts
2026-05-06 18:55 44.50981 11.65662 30076 ft 453 kts
2026-05-06 18:55 44.54040 11.66739 29241 ft 452 kts 15°
2026-05-06 18:55 44.55965 11.67851 28689 ft 453 kts 25°
2026-05-06 18:55 44.58655 11.70154 27875 ft 452 kts 32°
2026-05-06 18:56 44.61255 11.72607 27096 ft 448 kts 32°
2026-05-06 18:56 44.63825 11.75044 26334 ft 444 kts 32°
2026-05-06 18:56 44.66379 11.77470 25599 ft 440 kts 32°
2026-05-06 18:56 44.68868 11.79834 25365 ft 419 kts 32°
2026-05-06 18:57 44.71267 11.82112 24682 ft 414 kts 32°
2026-05-06 18:57 44.73624 11.84344 23974 ft 412 kts 32°
2026-05-06 18:57 44.76021 11.86614 22962 ft 415 kts 32°
2026-05-06 18:57 44.78417 11.88887 21904 ft 418 kts 32°
2026-05-06 18:58 44.80835 11.91182 20858 ft 419 kts 32°
2026-05-06 18:58 44.83251 11.93482 19869 ft 419 kts 32°
2026-05-06 18:58 44.85656 11.95777 18896 ft 417 kts 32°
2026-05-06 18:58 44.88055 11.98069 17923 ft 415 kts 33°
2026-05-06 18:59 44.90436 12.00348 16857 ft 412 kts 33°
2026-05-06 18:59 44.92734 12.02737 15825 ft 408 kts 41°
2026-05-06 18:59 44.94847 12.05370 14848 ft 403 kts 41°
2026-05-06 18:59 44.96930 12.07977 14155 ft 392 kts 41°
2026-05-06 19:00 44.98949 12.10386 13902 ft 368 kts 42°
2026-05-06 19:00 45.00773 12.12798 13667 ft 349 kts 44°
2026-05-06 19:00 45.02461 12.15089 13396 ft 332 kts 44°
2026-05-06 19:00 45.04091 12.17309 13133 ft 318 kts 44°
2026-05-06 19:01 45.05830 12.19166 12863 ft 311 kts 22°
2026-05-06 19:01 45.07866 12.19875 12583 ft 295 kts 355°
2026-05-06 19:01 45.09799 12.19320 12191 ft 277 kts 326°
2026-05-06 19:01 45.11293 12.17742 11749 ft 265 kts 308°
2026-05-06 19:02 45.12552 12.15873 11255 ft 261 kts 306°
2026-05-06 19:02 45.13762 12.13975 10758 ft 259 kts 306°
2026-05-06 19:02 45.14952 12.12072 10268 ft 257 kts 306°
2026-05-06 19:02 45.16126 12.10173 9784 ft 255 kts 306°
2026-05-06 19:03 45.17288 12.08275 9256 ft 254 kts 306°
2026-05-06 19:03 45.18431 12.06387 8738 ft 252 kts 306°
2026-05-06 19:03 45.19563 12.04493 8220 ft 251 kts 306°
2026-05-06 19:03 45.20680 12.02597 7723 ft 249 kts 306°
2026-05-06 19:04 45.21781 12.00705 7238 ft 248 kts 306°
2026-05-06 19:04 45.22864 11.98819 6746 ft 246 kts 306°
2026-05-06 19:04 45.23935 11.96935 6342 ft 241 kts 305°
2026-05-06 19:04 45.24959 11.95126 6109 ft 230 kts 305°
2026-05-06 19:05 45.25952 11.93365 6032 ft 227 kts 305°
2026-05-06 19:05 45.26929 11.91624 6039 ft 228 kts 305°
2026-05-06 19:05 45.27919 11.89854 5963 ft 230 kts 305°
2026-05-06 19:05 45.28907 11.88084 5699 ft 228 kts 305°
2026-05-06 19:06 45.29887 11.86320 5437 ft 227 kts 305°
2026-05-06 19:06 45.30949 11.84651 5187 ft 229 kts 319°
2026-05-06 19:06 45.32399 11.83763 5039 ft 233 kts 353°
2026-05-06 19:06 45.33996 11.84114 4808 ft 235 kts 26°
2026-05-06 19:07 45.35198 11.85592 4558 ft 233 kts 60°
2026-05-06 19:07 45.35654 11.87783 4301 ft 229 kts 94°
2026-05-06 19:07 45.35427 11.89974 4104 ft 226 kts 109°
2026-05-06 19:07 45.34910 11.92079 3784 ft 224 kts 114°
2026-05-06 19:08 45.34348 11.94134 3469 ft 223 kts 114°
2026-05-06 19:08 45.33768 11.96181 3143 ft 223 kts 115°
2026-05-06 19:08 45.33126 11.98161 3029 ft 219 kts 118°
2026-05-06 19:08 45.32464 12.00104 3031 ft 216 kts 118°
2026-05-06 19:09 45.31826 12.01967 3015 ft 203 kts 118°
2026-05-06 19:09 45.31220 12.03748 3025 ft 198 kts 117°
2026-05-06 19:09 45.30810 12.05566 3068 ft 196 kts 99°
2026-05-06 19:09 45.30824 12.07459 3046 ft 187 kts 88°
2026-05-06 19:10 45.30992 12.09256 3025 ft 182 kts 76°
2026-05-06 19:10 45.31556 12.10854 3028 ft 182 kts 52°
2026-05-06 19:10 45.32465 12.12104 3030 ft 182 kts 42°
2026-05-06 19:10 45.33409 12.13302 3026 ft 182 kts 43°
2026-05-06 19:11 45.34350 12.14498 3027 ft 182 kts 43°
2026-05-06 19:11 45.35294 12.15701 3023 ft 182 kts 43°
2026-05-06 19:11 45.36236 12.16902 3024 ft 182 kts 43°
2026-05-06 19:11 45.37165 12.18088 3025 ft 181 kts 43°
2026-05-06 19:12 45.38094 12.19274 2908 ft 176 kts 43°
2026-05-06 19:12 45.39006 12.20439 2735 ft 176 kts 43°
2026-05-06 19:12 45.39909 12.21593 2501 ft 174 kts 43°
2026-05-06 19:12 45.40808 12.22742 2275 ft 173 kts 43°
2026-05-06 19:13 45.41698 12.23881 2044 ft 171 kts 43°
2026-05-06 19:13 45.42581 12.25011 1819 ft 170 kts 43°
2026-05-06 19:13 45.43456 12.26132 1600 ft 168 kts 43°
2026-05-06 19:13 45.44310 12.27225 1363 ft 167 kts 44°
2026-05-06 19:14 45.45168 12.28325 1142 ft 165 kts 43°
2026-05-06 19:14 45.46002 12.29394 921 ft 153 kts 43°
2026-05-06 19:14 45.46770 12.30378 725 ft 144 kts 42°
2026-05-06 19:14 45.47504 12.31322 551 ft 140 kts 42°
2026-05-06 19:15 45.48210 12.32254 351 ft 137 kts 40°
2026-05-06 19:15 45.48927 12.33143 180 ft 135 kts 40°
2026-05-06 19:15 45.49620 12.34027 48 ft 135 kts 41°
2026-05-06 19:15 45.50283 12.34872 15 ft 99 kts 42°
2026-05-06 19:16 45.50586 12.35267 13 ft 38 kts 42°
2026-05-06 19:16 45.50729 12.35385 16 ft 19 kts 20°
2026-05-06 19:16 45.50794 12.35410 16 ft 0 kts
2026-05-06 19:17 45.50828 12.35420 16 ft 12 kts 12°
2026-05-06 19:17 45.50919 12.35431 17 ft 13 kts 332°
2026-05-06 19:17 45.50920 12.35359 19 ft 8 kts 227°
2026-05-06 19:17 45.50865 12.35285 17 ft 15 kts 221°
2026-05-06 19:18 45.50776 12.35182 18 ft 17 kts 218°
2026-05-06 19:18 45.50692 12.35066 14 ft 15 kts 224°
2026-05-06 19:18 45.50625 12.34988 14 ft 8 kts 218°
2026-05-06 19:18 45.50611 12.34901 15 ft 10 kts 269°
2026-05-06 19:19 45.50612 12.34801 15 ft 9 kts 271°
2026-05-06 19:19 45.50612 12.34752 15 ft 5 kts 269°
2026-05-06 19:19 45.50605 12.34684 16 ft 8 kts 259°
2026-05-06 19:19 45.50600 12.34664 17 ft 3 kts 229°
2026-05-06 19:20 45.50528 12.34633 16 ft 13 kts 205°
2026-05-06 19:20 45.50463 12.34567 16 ft 11 kts 223°
2026-05-06 19:20 45.50400 12.34487 16 ft 13 kts 221°
2026-05-06 19:20 45.50327 12.34395 16 ft 15 kts 221°
2026-05-06 19:21 45.50250 12.34296 16 ft 14 kts 222°
2026-05-06 19:21 45.50189 12.34218 16 ft 11 kts 222°
2026-05-06 19:21 45.50128 12.34138 16 ft 13 kts 223°
2026-05-06 19:21 45.50136 12.34048 16 ft 8 kts 314°
2026-05-06 19:22 45.50148 12.34029 16 ft 0 kts 313°
2026-05-06 19:22 45.50149 12.34027 16 ft 1 kts 313°
2026-05-06 19:22 45.50150 12.34027 16 ft 0 kts 313°